[[{"header":{"parameterUnit":"m.s-1","parameterCategory":1,"la1":30.2991,"la2":30.254,"lo1":-89.0895,"lo2":-89.0444,"dy":0.0017,"dx":0.0017,"nx":28,"ny":28,"refTime":"2025-07-11T21:00:00:Z","depth":0,"parameterNumber":2,"parameterNumberName":"U-component_of_WINDS"},"data":[0,0,0,0,0,0,0,0,0,0,0,0,0,0,0,0,0,0,0,0,0,0,0,0,0,0,0,0,0,0,0,0,0,0,0,0,0,0,0,0,0,0,0,0,0,0,0,0,0,0,0,0,0,0,0,0,0,0,3.7725,3.7726,0,3.7827,3.7828,3.783,3.7777,3.7775,3.7772,3.7769,3.7873,3.7879,3.7884,0,0,0,0,0,0,0,0,0,0,0,0,0,3.7481,3.7485,3.7725,3.7726,3.7727,3.7827,3.7829,3.783,3.7778,3.7774,3.7771,3.7768,3.7872,3.7878,3.7884,0,0,0,0,0,0,0,0,0,0,0,0,0,3.7585,3.7487,3.7724,3.7713,3.7713,3.7827,3.7829,3.783,3.7778,3.7774,3.777,3.7766,3.787,3.7877,3.7885,3.8015,0,0,3.7909,3.7913,0,0,0,0,0,0,0,0,3.7579,3.7594,3.7714,3.7714,3.7714,3.7785,3.7781,3.7892,3.7779,3.7754,3.7769,3.7764,3.7847,3.7857,3.7885,3.802,3.8025,3.791,3.7915,3.7918,3.7921,0,0,0,0,0,0,0,3.7572,3.759,3.7765,3.7715,3.7716,3.7702,3.7712,3.7802,3.7822,3.7756,3.7752,3.7765,3.7847,3.7877,3.7887,3.8026,3.791,3.7917,3.7922,3.7925,3.8269,3.8273,0,0,0,0,0,0,3.7566,3.7584,3.7762,3.7768,3.7636,3.771,3.7721,3.7767,3.7821,3.7825,3.7768,3.7762,3.7866,3.7878,3.7891,3.8043,3.7918,3.7926,3.793,3.8264,3.827,3.8274,0,0,0,0,0,0,3.7561,3.7582,3.7758,3.7675,3.7696,3.7718,3.777,3.7771,3.7801,3.7831,3.7834,3.7796,3.7863,3.7879,3.7984,3.8046,3.7929,3.7937,3.8259,3.8266,3.8272,3.8351,0,0,0,0,0,0,3.7554,3.7581,3.7631,3.7677,3.7701,3.7851,3.7774,3.7776,3.7815,3.7808,3.7857,3.7862,3.7861,3.7972,3.7992,3.8055,3.7943,3.8254,3.8262,3.827,3.8343,3.8359,3.8373,0,0,0,0,0,3.7545,3.765,3.7634,3.7656,3.7765,3.7854,3.7868,3.7866,3.7821,3.7871,3.7889,3.786,3.8037,3.7983,3.8005,3.8071,3.825,3.826,3.8269,3.8336,3.8356,3.8373,0,0,0,0,0,0,3.7612,3.7656,3.7639,3.7762,3.7804,3.7845,3.7908,3.7888,3.7944,3.7935,3.793,3.7941,3.8049,3.8071,3.8011,3.8198,3.8136,3.8151,3.8179,3.8198,3.8213,3.8204,3.7949,0,0,0,0,0,3.7641,3.7711,3.7745,3.785,3.7872,3.7887,3.7926,3.792,3.7964,3.7982,3.8008,3.8052,3.8116,3.8159,3.8221,3.8346,3.8354,3.8402,3.8418,3.843,3.8442,3.8505,3.8526,3.8307,3.8307,3.8306,0,0,3.7702,3.7734,3.7779,3.7864,3.7897,3.7967,3.7903,3.7981,3.8032,3.7994,3.8093,3.8114,3.8162,3.8276,3.8328,3.8297,3.8504,3.8443,3.8452,3.8457,3.8518,3.8538,3.8557,3.8313,3.8312,3.8311,0,0,3.7847,3.788,3.7969,3.8003,3.8052,3.8061,3.8082,3.8126,3.8138,3.8237,3.8209,3.827,3.8383,3.8416,3.8449,3.8604,3.8578,3.8625,3.8703,3.8766,3.8783,3.8798,3.8849,3.8868,3.8637,3.8637,3.8637,0,3.7915,3.8021,3.8018,3.8097,3.8134,3.8102,3.819,3.8223,3.8291,3.8316,3.8282,3.842,3.8451,3.857,3.8608,3.8636,3.8658,3.8618,3.8781,3.8796,3.881,3.8859,3.8879,3.8642,3.8641,3.8641,3.864,0,3.8101,3.8174,3.824,3.8305,3.8349,3.8433,3.8441,3.8486,3.8476,3.8488,3.8588,3.8623,3.8689,3.8718,3.871,3.8836,3.8815,3.8781,3.8718,3.8836,3.8882,3.8901,3.8649,3.8647,3.8646,3.8645,0,0,3.8291,3.8351,3.8374,3.8401,3.8453,3.8509,3.8591,3.8655,3.8692,3.874,3.8805,3.89,3.8868,3.8905,3.89,3.8955,3.9071,3.8914,3.8915,3.8939,3.9207,3.9229,3.9251,3.9055,3.9059,3.9062,3.9201,0,3.8436,3.8578,3.8576,3.8707,3.8772,3.8742,3.8812,3.8851,3.8863,3.892,3.8934,3.9,3.8955,3.8976,3.9029,3.9045,3.9124,3.9036,3.9113,3.9116,3.9098,3.9275,3.93,3.943,3.9219,3.9223,3.9225,0,3.8625,3.8677,3.8814,3.8852,3.888,3.8943,3.9,3.9055,3.9097,3.9102,3.9142,3.9128,3.9208,3.9145,3.9253,3.9193,3.9225,3.9237,3.9242,3.9246,3.9175,3.9281,3.9472,3.949,3.9254,3.9251,3.9249,0,3.8745,3.8849,3.8943,3.8968,3.9017,3.9061,3.9083,3.9121,3.9159,3.9208,3.9232,3.9291,3.9322,3.9367,3.9368,3.9323,3.9476,3.9415,3.948,3.948,3.9511,3.9509,3.9706,3.9538,3.9538,3.9538,3.9537,0,3.8906,3.899,3.8997,3.9055,3.9147,3.9143,3.9234,3.9252,3.9286,3.9344,3.9323,3.9379,3.9379,3.9435,3.9437,3.9524,3.954,3.9544,3.9542,3.9544,3.9542,3.9562,3.9551,3.9543,3.9542,3.9541,3.954,0,3.9054,3.9063,3.9162,3.92,3.9211,3.9276,3.9307,3.9361,3.9371,3.9446,3.9463,3.9479,3.9544,3.955,3.9627,3.9627,3.9731,3.9722,3.9716,3.9713,3.9777,3.9769,3.9991,4.0018,3.9836,3.9838,3.9839,0,3.9154,3.9217,3.926,3.9298,3.9322,3.9384,3.9422,3.942,3.946,3.9511,3.9557,3.962,3.967,3.9774,3.9792,3.9849,3.9838,3.9912,3.9847,3.9844,3.9834,3.9829,3.9833,3.9924,3.9926,3.9927,3.9929,0,3.933,3.933,3.9385,3.9441,3.9486,3.9531,3.9572,3.9604,3.9607,3.9653,3.9718,3.9757,3.9833,3.9894,3.9949,3.997,3.9949,3.9949,3.9967,3.9967,3.9959,3.996,3.9747,3.9944,3.9942,3.9941,3.994,3.994,3.9454,3.9507,3.9545,3.9606,3.9637,3.9675,3.9726,3.9742,3.9796,3.9857,3.9854,3.9925,3.9962,4.0034,4.0059,4.0114,4.0089,4.0115,4.0121,4.0126,4.0131,3.9953,4.0124,4.0124,4.0123,4.0123,4.0123,0,3.9625,3.9647,3.9703,3.9761,3.9808,3.9785,3.9828,3.9869,3.9932,3.9969,4.0017,4.009,4.0149,4.0171,4.0227,4.0266,4.0257,4.0281,4.0276,4.028,4.0152,4.0129,4.0286,4.0286,4.0286,4.0286,4.0286,4.0286,3.9719,3.9806,3.9811,3.9912,3.9934,4.0003,4.0029,4.0064,4.0092,4.0175,4.0223,4.0237,4.0266,4.0324,4.0376,4.038,4.04,4.0427,4.0427,4.0306,4.029,4.0274,4.0252,4.0432,4.0432,4.055,4.0551,4.0552]},{"header":{"parameterUnit":"m.s-1","parameterCategory":1,"la1":30.2991,"la2":30.254,"lo1":-89.0895,"lo2":-89.0444,"dy":0.0017,"dx":0.0017,"nx":28,"ny":28,"refTime":"2025-07-11T21:00:00:Z","depth":0,"parameterNumber":3,"parameterNumberName":"V-component_of_WINDS"},"data":[0,0,0,0,0,0,0,0,0,0,0,0,0,0,0,0,0,0,0,0,0,0,0,0,0,0,0,0,0,0,0,0,0,0,0,0,0,0,0,0,0,0,0,0,0,0,0,0,0,0,0,0,0,0,0,0,0,0,1.2011,1.2012,0,1.2028,1.2028,1.2028,1.2006,1.2005,1.2005,1.2004,1.2022,1.2023,1.2024,0,0,0,0,0,0,0,0,0,0,0,0,0,1.196,1.1961,1.2011,1.2012,1.2012,1.2028,1.2028,1.2028,1.2006,1.2005,1.2004,1.2003,1.2021,1.2023,1.2024,0,0,0,0,0,0,0,0,0,0,0,0,0,1.198,1.1961,1.2011,1.2003,1.2002,1.2028,1.2028,1.2029,1.2007,1.2005,1.2004,1.2003,1.2021,1.2023,1.2025,1.206,0,0,1.203,1.2031,0,0,0,0,0,0,0,0,1.1979,1.1982,1.2004,1.2003,1.2003,1.2014,1.2017,1.2039,1.2007,1.2005,1.2004,1.2002,1.202,1.2022,1.2028,1.2061,1.2062,1.203,1.2031,1.2032,1.2033,0,0,0,0,0,0,0,1.1977,1.1981,1.2018,1.2004,1.2003,1.1998,1.1999,1.2021,1.2019,1.2005,1.2003,1.2006,1.202,1.2026,1.2028,1.2062,1.203,1.2032,1.2033,1.2034,1.2123,1.2124,0,0,0,0,0,0,1.1977,1.198,1.2017,1.2018,1.1987,1.2,1.2001,1.2011,1.2019,1.2019,1.2007,1.2004,1.2024,1.2026,1.2029,1.2069,1.2032,1.2034,1.2035,1.2121,1.2123,1.2124,0,0,0,0,0,0,1.1976,1.1981,1.2017,1.1999,1.2003,1.2002,1.2013,1.2012,1.2019,1.202,1.202,1.2014,1.2023,1.2026,1.2052,1.207,1.2035,1.2036,1.212,1.2122,1.2124,1.2152,0,0,0,0,0,0,1.1975,1.198,1.1994,1.1999,1.2004,1.204,1.2014,1.2014,1.2022,1.2019,1.2026,1.2026,1.2022,1.2049,1.2054,1.2072,1.2038,1.2118,1.2121,1.2123,1.2149,1.2155,1.2159,0,0,0,0,0,1.1973,1.2002,1.1995,1.2,1.2021,1.2041,1.2044,1.2038,1.2024,1.2037,1.2037,1.2026,1.2067,1.2052,1.2057,1.2076,1.2117,1.212,1.2123,1.2147,1.2154,1.2159,0,0,0,0,0,0,1.2,1.2003,1.1995,1.2027,1.2034,1.2037,1.2055,1.2045,1.2057,1.2054,1.2046,1.2048,1.2075,1.2078,1.2061,1.2109,1.209,1.2094,1.2107,1.2113,1.2117,1.2116,1.2039,0,0,0,0,0,1.201,1.2026,1.2027,1.2055,1.2059,1.2056,1.2065,1.2059,1.2066,1.2069,1.2072,1.2079,1.2093,1.2103,1.2117,1.2149,1.215,1.2165,1.2169,1.2173,1.2177,1.2193,1.2199,1.2134,1.2134,1.2134,0,0,1.203,1.2034,1.2044,1.2061,1.2065,1.2082,1.2059,1.2078,1.2089,1.2072,1.2096,1.2098,1.2106,1.2135,1.2148,1.2138,1.2195,1.2177,1.218,1.2181,1.2196,1.2203,1.2208,1.2136,1.2135,1.2135,0,0,1.2076,1.208,1.2103,1.2108,1.2115,1.2112,1.2118,1.2122,1.2123,1.2146,1.2133,1.2147,1.2172,1.2178,1.2184,1.2229,1.2218,1.2233,1.2258,1.2274,1.2279,1.2284,1.2298,1.2304,1.2237,1.2237,1.2237,0,1.21,1.2124,1.2116,1.2135,1.2142,1.2126,1.2149,1.2154,1.2165,1.217,1.2159,1.2189,1.2193,1.2222,1.2233,1.2239,1.2244,1.2233,1.2279,1.2283,1.2287,1.2302,1.2307,1.2238,1.2238,1.2238,1.2238,0,1.2153,1.217,1.2187,1.2197,1.2206,1.2227,1.2222,1.2232,1.2225,1.2223,1.2247,1.2251,1.2264,1.2271,1.2265,1.2299,1.2292,1.228,1.226,1.2295,1.2309,1.2314,1.2241,1.224,1.224,1.2239,0,0,1.2218,1.2221,1.2228,1.2231,1.2237,1.225,1.2269,1.2281,1.2289,1.2297,1.2312,1.2333,1.2321,1.2328,1.2322,1.2336,1.237,1.2322,1.2322,1.233,1.2406,1.2414,1.2421,1.2362,1.2363,1.2364,1.2405,0,1.2262,1.2295,1.2287,1.232,1.2334,1.2318,1.2335,1.234,1.2338,1.235,1.2349,1.2363,1.2347,1.2351,1.2364,1.2363,1.2385,1.236,1.2376,1.2377,1.2375,1.2428,1.2438,1.2476,1.241,1.2411,1.2411,0,1.2319,1.2327,1.2361,1.2362,1.2368,1.2383,1.2392,1.2404,1.2409,1.2406,1.2413,1.2404,1.2422,1.2402,1.2427,1.241,1.2416,1.2416,1.2418,1.2419,1.2396,1.243,1.2488,1.2493,1.242,1.2419,1.2418,0,1.2361,1.2381,1.2403,1.2407,1.2409,1.242,1.2421,1.2425,1.2432,1.244,1.2444,1.2454,1.246,1.2468,1.2462,1.2448,1.2487,1.2467,1.2485,1.2486,1.2495,1.2494,1.2554,1.2499,1.2499,1.2499,1.2499,0,1.2411,1.2432,1.2422,1.2436,1.2458,1.2448,1.2471,1.2471,1.2473,1.2486,1.2473,1.2486,1.2477,1.2488,1.2483,1.2504,1.2507,1.2505,1.2504,1.2506,1.2506,1.251,1.2507,1.2501,1.25,1.25,1.25,0,1.2463,1.2457,1.248,1.2479,1.2479,1.2496,1.2495,1.2508,1.2504,1.2521,1.2524,1.2519,1.2532,1.2526,1.254,1.2536,1.2562,1.2558,1.2561,1.2559,1.2578,1.2576,1.2642,1.265,1.2591,1.2591,1.2592,0,1.2495,1.2511,1.2511,1.2518,1.252,1.2532,1.2539,1.2529,1.2537,1.2542,1.2553,1.2565,1.2573,1.2594,1.2592,1.2601,1.2596,1.2619,1.2598,1.2599,1.2596,1.2595,1.2595,1.2623,1.2624,1.2624,1.2625,0,1.2553,1.2548,1.2558,1.2566,1.2574,1.258,1.2585,1.2592,1.2582,1.2591,1.2603,1.2609,1.2622,1.2633,1.2641,1.2643,1.2632,1.2631,1.2636,1.2638,1.2639,1.2638,1.2571,1.263,1.2629,1.2629,1.2629,1.2628,1.2595,1.2607,1.2609,1.2619,1.2622,1.2626,1.2637,1.2634,1.2644,1.2653,1.2647,1.2661,1.2664,1.2673,1.2676,1.2686,1.2678,1.2685,1.2686,1.2688,1.269,1.2637,1.2688,1.2688,1.2688,1.2688,1.2687,0,1.2651,1.2651,1.266,1.2667,1.2675,1.2663,1.2667,1.2675,1.2687,1.269,1.2698,1.2711,1.2721,1.2719,1.2728,1.2737,1.2732,1.2739,1.2738,1.2738,1.2698,1.2693,1.2743,1.2743,1.2743,1.2743,1.2743,1.2743,1.2681,1.2701,1.2696,1.2716,1.2715,1.2728,1.2732,1.2735,1.2737,1.2752,1.276,1.2758,1.2759,1.2767,1.2776,1.2775,1.2778,1.2787,1.2785,1.2747,1.2742,1.2736,1.2731,1.2788,1.2789,1.2824,1.2824,1.2824]}]]